Miscellaneous Local Product
Issued by NWS Hastings, NE

Home | Current Version | Previous Version | Graphics & Text | Print | Product List | Glossary On
Versions: 1 2 3 4 5 6 7 8 9 10 11 12 13 14 15 16 17 18 19 20 21 22 23 24 25 26 27 28 29 30 31 32 33 34 35 36 37 38 39 40 41 42 43 44 45 46 47 48 49 50
000
AXUS43 KGID 222202
MISGRI

GID CWA HOURLY WEATHER ROUNDUP
NATIONAL WEATHER SERVICE HASTINGS NE
500 PM CDT MON SEP 22 2014

NOTE: "FAIR" INDICATES FEW OR NO CLOUDS BELOW 12,000 FEET WITH NO
SIGNIFICANT WEATHER AND/OR OBSTRUCTIONS TO VISIBILITY.

...SOUTH CENTRAL NEBRASKA...

CITY           SKY/WX    TMP DP  RH WIND       PRES   REMARKS
GRAND ISLAND   MOSUNNY   74  49  41 SE10      30.17F
HASTINGS       MOSUNNY   72  44  36 S10       30.17F
KEARNEY        CLOUDY    72  46  40 SE15      30.18S
ORD            PTSUNNY   72  48  42 S13       30.14F
YORK           MOSUNNY   73  50  43 S9        30.20F
AURORA         MOSUNNY   73  44  35 S7        30.18F
LEXINGTON      CLOUDY    72  48  43 SE13      30.14F
HOLDREGE       CLOUDY    72  46  39 S13       30.16F
HEBRON         SUNNY     73  42  32 S8        30.20F

...NEBRASKA PANHANDLE...

CITY           SKY/WX    TMP DP  RH WIND       PRES   REMARKS
CHADRON        CLOUDY    75  55  49 S17       29.99S
ALLIANCE       LGT RAIN  68  56  65 S21       30.07S
SCOTTSBLUFF    LGT RAIN  67  64  90 N13       30.05F
SIDNEY         MOSUNNY   76  54  46 S17       30.09F

...WESTERN AND NORTH CENTRAL NEBRASKA...

CITY           SKY/WX    TMP DP  RH WIND       PRES   REMARKS
VALENTINE      CLOUDY    66  50  56 S21G29    30.09S
AINSWORTH      CLOUDY    69  47  44 S20G29    30.11F
ONEILL         PTSUNNY   73  50  45 S14       30.14F
BROKEN BOW     CLOUDY    71  47  42 S12       30.15F
IMPERIAL       CLOUDY    72  51  47 S21       30.09F
NORTH PLATTE   RAIN      58  54  86 E7        30.14F
MCCOOK         CLOUDY    77  46  33 S16G28    30.11F

...EASTERN NEBRASKA...

CITY           SKY/WX    TMP DP  RH WIND       PRES   REMARKS
NORFOLK        MOSUNNY   73  49  42 S14       30.17F
SO SIOUX CITY  MOSUNNY   74  49  41 S9        30.19F
TEKAMAH        MOSUNNY   74  47  38 S12       30.19F
COLUMBUS       MOSUNNY   72  48  43 S8        30.20F
ALBION         PTSUNNY   72  48  43 S9        30.18F
OMAHA EPPLEY   PTSUNNY   73  48  41 S10       30.21F
OFFUTT AFB     MOSUNNY   72  53  51 SE7       30.21F
MILLARD        MOSUNNY   74  49  41 S7        30.20F
LINCOLN        PTSUNNY   75  46  35 S9        30.20F
NEBRASKA CITY    N/A     72  39  30 S5        30.22F
BEATRICE       PTSUNNY   73  45  36 S8        30.20F
FALLS CITY     SUNNY     73  47  39 S5        30.21F

...NORTHERN KANSAS...

CITY           SKY/WX    TMP DP  RH WIND       PRES   REMARKS
GOODLAND       CLOUDY    75  51  43 S18G28    30.13F
HILL CITY      MOSUNNY   78  44  29 S16G23    30.15F
NORTON         CLEAR     79  37  22 SE15      30.14S
PHILLIPSBURG   SUNNY     77  43  29 SE13      30.16F
SMITH CENTER   MOSUNNY   75  45  33 SE14G20   30.18F
BELOIT         SUNNY     75  45  33 SE7       30.18F
HAYS           PTSUNNY   77  45  31 S14       30.18F
RUSSELL        MOSUNNY   74  46  36 S9        30.18F
CONCORDIA      MOSUNNY   73  50  44 S9        30.20F
SALINA         MOSUNNY   76  47  35 S7        30.21F
TOPEKA         SUNNY     76  49  38 E6        30.22F



USA.gov is the U.S. government's official web portal to all federal, state and local government web resources and services.